Weather History for Deelen, Netherlands

Change the Weather History Date:

Wednesday, February 20, 2013

  Actual Average Record
Temperature  
Mean Temperature 30 °F -  
Max Temperature 35 °F 46 °F 55 °F (1998)
Min Temperature 24 °F 34 °F 23 °F (2012)
Degree Days  
Heating Degree Days 34    
Moisture  
Dew Point 24 °F    
Average Humidity 78    
Maximum Humidity 93    
Minimum Humidity 60    
Precipitation  
Precipitation 0.00 in - - ()
Sea Level Pressure  
Sea Level Pressure 30.26 in    
Wind  
Wind Speed 9 mph ()    
Max Wind Speed 15 mph    
Max Gust Speed -    
Visibility 6.2 miles    
Events      
Averages and records for this station are not official NWS values.
T = Trace of Precipitation, MM = Missing Value Source: Averaged Metar Reports

Daily Weather History Graph

Daily Weather History Graph

Search for Another Location

Airport:

Trip Planner

Search our weather history database for the weather conditions in past years. The results will help you decide how hot, cold, wet, or windy it might be!

Date:

Astronomy

Feb. 20, 2013 Rise Set
Actual Time 7:41 AM CET 5:59 PM CET
Civil Twilight 7:06 AM CET 6:34 PM CET
Nautical Twilight 6:27 AM CET 7:13 PM CET
Astronomical Twilight 5:48 AM CET 7:52 PM CET
Moon 12:44 PM CET (2/20) 4:12 AM CET (2/20)
Length of Visible Light 11h 27m
Length of Day
10h 18m
Waxing Gibbous, 74% of the Moon is Illuminated
Feb 20
Waxing Gibbous
Feb 25
Full
Mar 4
Last Quarter
Mar 11
New
Mar 19
First Quarter

Hourly Weather History & Observations

Time (CET) Temp. Windchill Dew Point Humidity Pressure Visibility Wind Dir Wind Speed Gust Speed Precip Events Conditions
12:25 AM 32.0 °F 24.8 °F 28.4 °F 87% 30.15 in 6.2 mi NE 8.1 mph - N/A   Mostly Cloudy
1:25 AM 32.0 °F 24.2 °F 26.6 °F 80% 30.15 in 6.2 mi NE 9.2 mph - N/A   Overcast
1:55 AM 32.0 °F 24.2 °F 26.6 °F 80% 30.18 in 6.2 mi NE 9.2 mph - N/A   Overcast
2:25 AM 30.2 °F 21.9 °F 26.6 °F 86% 30.18 in 6.2 mi NE 9.2 mph - N/A   Overcast
2:55 AM 30.2 °F 21.3 °F 26.6 °F 86% 30.18 in 6.2 mi NE 10.4 mph - N/A   Overcast
3:25 AM 30.2 °F 21.3 °F 26.6 °F 86% 30.18 in 6.2 mi NE 10.4 mph - N/A   Overcast
3:55 AM 30.2 °F 22.6 °F 26.6 °F 86% 30.18 in 6.2 mi NE 8.1 mph - N/A   Partly Cloudy
4:25 AM 28.4 °F 19.7 °F 26.6 °F 93% 30.21 in 6.2 mi NE 9.2 mph - N/A   Scattered Clouds
4:55 AM 30.2 °F 21.3 °F 26.6 °F 86% 30.21 in 6.2 mi NE 10.4 mph - N/A   Unknown
5:25 AM 28.4 °F 19.1 °F 24.8 °F 86% 30.21 in 6.2 mi NE 10.4 mph - N/A   Unknown
5:55 AM 28.4 °F 18.5 °F 24.8 °F 86% 30.21 in 6.2 mi NE 11.5 mph - N/A   Unknown
6:25 AM 28.4 °F 19.1 °F 24.8 °F 86% 30.24 in 6.2 mi NE 10.4 mph - N/A   Unknown
6:55 AM 26.6 °F 18.2 °F 24.8 °F 93% 30.24 in 6.2 mi NE 8.1 mph - N/A   Unknown
7:25 AM 26.6 °F 18.2 °F 24.8 °F 93% 30.24 in 6.2 mi NE 8.1 mph - N/A   Unknown
7:55 AM 26.6 °F 17.5 °F 24.8 °F 93% 30.24 in 6.2 mi NE 9.2 mph - N/A   Unknown
8:25 AM 26.6 °F 18.2 °F 24.8 °F 93% 30.27 in 6.2 mi NE 8.1 mph - N/A   Unknown
8:55 AM 28.4 °F 20.4 °F 24.8 °F 86% 30.27 in 6.2 mi NE 8.1 mph - N/A   Unknown
9:25 AM 30.2 °F 21.9 °F 24.8 °F 80% 30.27 in 6.2 mi ENE 9.2 mph - N/A   Partly Cloudy
9:55 AM 32.0 °F 23.6 °F 24.8 °F 75% 30.30 in 6.2 mi NE 10.4 mph - N/A   Unknown
10:25 AM 32.0 °F 24.2 °F 24.8 °F 75% 30.30 in 6.2 mi ENE 9.2 mph - N/A   Unknown
10:55 AM 33.8 °F 24.3 °F 24.8 °F 70% 30.30 in 6.2 mi ENE 13.8 mph - N/A   Scattered Clouds
11:25 AM 33.8 °F 23.9 °F 23.0 °F 65% 30.30 in 6.2 mi NE 15.0 mph - N/A   Unknown
11:55 AM 35.6 °F 27.5 °F 26.6 °F 70% 30.30 in 6.2 mi NE 11.5 mph - N/A   Overcast
12:00 PM 35.6 °F 28.0 °F 24.8 °F 65% 30.30 in 6.2 mi NE 10.4 mph - N/A   Overcast
12:25 PM 33.8 °F 24.8 °F 23.0 °F 65% 30.30 in 6.2 mi NE 12.7 mph - N/A   Mostly Cloudy
12:55 PM 33.8 °F 24.8 °F 23.0 °F 65% 30.30 in 6.2 mi NE 12.7 mph - N/A   Mostly Cloudy
1:25 PM 33.8 °F 25.3 °F 23.0 °F 65% 30.30 in 6.2 mi NE 11.5 mph - N/A   Overcast
1:55 PM 33.8 °F 25.3 °F 23.0 °F 65% 30.30 in 6.2 mi NE 11.5 mph - N/A   Overcast
2:25 PM 33.8 °F 25.3 °F 23.0 °F 65% 30.27 in 6.2 mi ENE 11.5 mph - N/A   Overcast
2:55 PM 33.8 °F 25.3 °F 21.2 °F 60% 30.27 in 6.2 mi ENE 11.5 mph - N/A   Overcast
3:25 PM 33.8 °F 24.8 °F 21.2 °F 60% 30.27 in 6.2 mi ENE 12.7 mph - N/A   Overcast
3:55 PM 33.8 °F 26.4 °F 24.8 °F 70% 30.27 in 6.2 mi NE 9.2 mph - N/A   Mostly Cloudy
4:25 PM 32.0 °F 23.6 °F 23.0 °F 69% 30.27 in 6.2 mi NE 10.4 mph - N/A   Scattered Clouds
4:55 PM 33.8 °F 24.3 °F 23.0 °F 65% 30.27 in 6.2 mi NE 13.8 mph - N/A   Overcast
5:25 PM 32.0 °F 23.0 °F 23.0 °F 69% 30.27 in 6.2 mi NE 11.5 mph - N/A   Overcast
5:55 PM 32.0 °F 24.2 °F 21.2 °F 64% 30.27 in 6.2 mi NE 9.2 mph - N/A   Unknown
6:25 PM 30.2 °F 23.4 °F 23.0 °F 75% 30.30 in 6.2 mi NE 6.9 mph - N/A   Overcast
6:55 PM 30.2 °F 22.6 °F 21.2 °F 69% 30.30 in 6.2 mi NE 8.1 mph - N/A   Unknown
7:25 PM 28.4 °F 20.4 °F 21.2 °F 74% 30.30 in 6.2 mi NE 8.1 mph - N/A   Partly Cloudy
7:55 PM 28.4 °F 22.2 °F 21.2 °F 74% 30.30 in 6.2 mi NNE 5.8 mph - N/A   Unknown
8:25 PM 28.4 °F 21.2 °F 24.8 °F 86% 30.30 in 6.2 mi NNE 6.9 mph - N/A   Overcast
8:55 PM 28.4 °F 19.1 °F 23.0 °F 80% 30.30 in 6.2 mi NE 10.4 mph - N/A   Unknown
9:25 PM 28.4 °F 20.4 °F 23.0 °F 80% 30.30 in 6.2 mi NE 8.1 mph - N/A   Unknown
9:55 PM 28.4 °F 20.4 °F 23.0 °F 80% 30.30 in 6.2 mi NNE 8.1 mph - N/A   Unknown
10:25 PM 26.6 °F 16.8 °F 23.0 °F 86% 30.30 in 6.2 mi NNE 10.4 mph - N/A   Unknown
10:54 PM 26.6 °F 17.5 °F 23.0 °F 86% 30.30 in 6.2 mi NE 9.2 mph - N/A   Unknown
10:55 PM 26.6 °F 18.2 °F 23.0 °F 86% 30.30 in 6.2 mi NE 8.1 mph - N/A   Unknown
11:25 PM 26.6 °F 18.2 °F 23.0 °F 86% 30.30 in 6.2 mi NE 8.1 mph - N/A   Partly Cloudy
11:55 PM 24.8 °F 16.1 °F 23.0 °F 93% 30.30 in 6.2 mi NE 8.1 mph - N/A   Partly Cloudy